Location: Unspecified
(0.0000°N, 0.0000°E)
Time: 06:14:18
(UTC+00:00)

Tiangong 2 - Pass Details

Date: 19 May 2019
Orbit: 379 x 387 km, 42.8° (Epoch: 22 May)

Event Time Altitude Azimuth Distance (km) Brightness Sun altitude
Rises 05:27:47 0° 315° (NW) 2,239 4.7 -6.8°
Reaches altitude 10° 05:29:50 10° 315° (NW) 1,391 3.6 -6.3°
Maximum altitude 05:32:58 87° 227° (SW) 386 1.0 -5.5°
Drops below altitude 10° 05:36:08 10° 136° (SE) 1,402 4.2 -4.8°
Sets 05:38:13 0° 136° (SE) 2,258 5.3 -4.3°
